Weather in Lyubeshev

Ukraine / Volyn Oblast     51°45′46″N   25°29′57″E
temp.,
°C
wind,
m/s
gust,
m/s
humid.,
%
clouds,
%
prec.,
mm/h
press.,
hPa
HPBL,
m
12 may, wed
wed1200:00+12se411835 0.0 1017192
03:00+11ese411885 0.0 1016189
06:00+10ese410950 0.0 1016194
09:00+15ese710789 0.0 1016661
12:00+16ese79530 0.0 10151273
15:00+18ese79453 0.0 10141712
18:00+16se79561 0.0 10141549
21:00+11se512675 0.0 1014475
13 may, thu
thu1300:00+8ese37795 0.0 1013129
03:00+6se34871 0.0 101171
06:00+6ese389131 0.0 1009169
09:00+11se577123 0.0 1008683
12:00+15se785565 0.0 10061768
15:00+17sse8852100 0.0 10052127
18:00+13sse7976100 0.1 1005913
21:00+11se6128887 0.3 1004597
14 may, fri
fri1400:00+11se51295100 0.6 1003491
03:00+11se51194100 2.7 1003438
06:00+11sse5996100 0.0 1003335
09:00+14s588358 0.0 1004557
12:00+17ssw5760100 0.2 10041561
15:00+17ssw7761100 0.3 10051238
18:00+15wsw777184 0.1 10061073
21:00+11sw378887 0.1 1007145
15 may, sat
sat1500:00+8sw379571 0.0 1008166
03:00+10sw4987100 0.0 1009420
06:00+8sw41192100 0.0 1009356
09:00+12wsw6973100 0.0 10091026
12:00+12wsw6976100 0.0 1011763
15:00+12w467880 0.0 1011482
18:00+17wnw35618 0.0 10101185
21:00+12n2287100 0.0 101117
16 may, sun
sun1600:00+10e22895 0.0 101211
03:00+9ese22915 0.0 101311
06:00+9e339288 0.0 101236
09:00+15e457493 0.0 1013365
12:00+19ese5659100 0.0 1012941
15:00+20ese5860100 0.1 1010967
18:00+17ese2684100 2.7 1010213
21:00+15ese41089100 5.5 1010233